This is the latest recevied weather packets stored in our database for station/object WB5CFT. If no packets are shown the sender has not sent any weather packets the latest 10 day(s).
| Time | Temp. | Humidity | Pressure | Rain* | Wind** | Luminosity | Snow |
|---|---|---|---|---|---|---|---|
| 1777909791 | 20° C | 64% | 1013.7 hPa | 0 mm | - | 251 W/m² | - |
| 1777909487 | 19.44° C | 65% | 1014 hPa | 0 mm | - | 217 W/m² | - |
| 1777909184 | 19.44° C | 65% | 1013.9 hPa | 0 mm | - | 195 W/m² | - |
| 1777908883 | 19.44° C | 65% | 1013.9 hPa | 0 mm | - | 195 W/m² | - |
| 1777908580 | 18.89° C | 66% | 1014 hPa | 0 mm | - | 204 W/m² | - |
| 1777908276 | 18.89° C | 66% | 1014.1 hPa | 0 mm | - | 158 W/m² | - |
| 1777907973 | 18.89° C | 66% | 1014 hPa | 0 mm | - | 211 W/m² | - |
| 1777907668 | 18.89° C | 67% | 1014.1 hPa | 0 mm | - | 183 W/m² | - |
| 1777907364 | 18.33° C | 68% | 1014 hPa | 0 mm | - | 173 W/m² | - |
| 1777907060 | 18.33° C | 67% | 1014.1 hPa | 0 mm | - | 159 W/m² | - |
| 1777906758 | 18.33° C | 67% | 1014 hPa | 0 mm | - | 167 W/m² | - |
| 1777906454 | 18.33° C | 68% | 1014.3 hPa | 0 mm | - | 167 W/m² | - |
| 1777906151 | 17.78° C | 68% | 1014 hPa | 0 mm | - | 168 W/m² | - |
| 1777905848 | 18.33° C | 67% | 1014.1 hPa | 0 mm | - | 196 W/m² | - |
| 1777905545 | 17.78° C | 68% | 1014.3 hPa | 0 mm | - | 247 W/m² | - |
| 1777905236 | 17.22° C | 69% | 1014.1 hPa | 0 mm | - | 145 W/m² | - |
| 1777904934 | 17.78° C | 69% | 1014.1 hPa | 0 mm | - | 122 W/m² | - |
| 1777904631 | 17.22° C | 69% | 1014.1 hPa | 0 mm | - | 150 W/m² | - |
| 1777904328 | 17.22° C | 69% | 1014.4 hPa | 0 mm | - | 130 W/m² | - |
| 1777904025 | 17.78° C | 68% | 1014.5 hPa | 0 mm | - | 135 W/m² | - |
| 1777903721 | 17.22° C | 69% | 1014.3 hPa | 0 mm | - | 239 W/m² | - |
| 1777903417 | 17.22° C | 69% | 1014.3 hPa | 0 mm | - | 116 W/m² | - |
| 1777903114 | 16.67° C | 70% | 1013.9 hPa | 0 mm | - | 105 W/m² | - |
| 1777902810 | 17.22° C | 70% | 1014 hPa | 0 mm | - | 94 W/m² | - |
| 1777902508 | 16.67° C | 70% | 1013.9 hPa | 0 mm | - | 92 W/m² | - |
* Rain latest hour (hover to see other rain measurements)
** Current wind speed in m/s (hover to see current wind gust speed)